Hourly Data Report for June 19, 2012

All times are specified in Local Standard Time (LST). Add 1 hour to adjust for Daylight Saving Time where and when it is observed.

SAINT JOHN A
NEW BRUNSWICK

45°18'58.000" N
65°53'24.000" W
108.80 m
8104901
71609
YSJ

Download Data

Hourly Data (June 2012)
Hourly Data Report for June 19, 2012
Temp Definition
°C
Dew Point Temp Definition
°C
Rel Hum Definition
%
Wind Dir Definition
10's deg

Wind Spd Definition
km/h
Visibility Definition
km
Stn Press Definition
kPa
Hmdx Definition


Wind Chill Definition


Weather Definition


TIME
00:00 8.7 8.1 96 20 5 10.0 100.82     Fog
01:00 8.3 7.7 96 19 6 10.0 100.80     Fog
02:00 7.2 6.9 98 17 4 10.0 100.80     Clear
03:00 7.4 7.3 99 19 10 6.4 100.79     Fog
04:00 9.2 9.2 100 21 7 10.0 100.81     LegendNANA
05:00 10.3 9.5 95 22 9 10.0 100.85     Cloudy
06:00 10.9 9.7 92 22 13 10.0 100.88     LegendNANA
07:00 11.3 9.2 87 22 15 10.0 100.86     LegendNANA
08:00 11.8 9.0 83 19 17 10.0 100.82     Cloudy
09:00 12.3 9.0 80 21 18 10.0 100.83     LegendNANA
10:00 12.4 9.3 81 22 21 10.0 100.82     LegendNANA
11:00 12.9 9.0 77 24 14 10.0 100.81     Cloudy
12:00 14.6 9.0 69 21 22 10.0 100.72     LegendNANA
13:00 15.2 9.0 66 21 24 10.0 100.64     LegendNANA
14:00 15.5 9.7 68 21 26 10.0 100.63     Cloudy
15:00 16.0 10.2 68 20 22 10.0 100.58     LegendNANA
16:00 16.1 11.1 72 20 28 10.0 100.55     LegendNANA
17:00 14.0 11.4 84 21 25 10.0 100.54     Cloudy
18:00 12.8 11.6 92 21 19 9.7 100.48     Fog
19:00 12.8 11.4 91 20 19 9.7 100.51     Fog
20:00 12.5 11.6 94 22 25 6.4 100.43     Fog
21:00 11.9 11.4 97 21 22 3.2 100.45     Fog
22:00 11.7 11.6 99 22 23 1.2 100.37     Fog
23:00 11.6 11.5 99 23 27 1.2 100.39     Fog

Notes on Data Quality.

Legend

  • E = Estimated
  • M = Missing
  • NA = Not Available
Date modified: